�������l�o���
Date,Time,MP-1(��Sv/h),MP-2(��Sv/h),MP-3(��Sv/h),MP-4(��Sv/h),MP-5(��Sv/h),MP-6(��Sv/h),MP-7(��Sv/h),MP-8(��Sv/h),����,����(m/s),���J
2023/04/09,00:00,0.551,0.794,0.482,0.997,0.699,0.317,0.569,0.541,���쐼,6.9,��
2023/04/09,00:10,0.552,0.794,0.481,0.997,0.697,0.318,0.569,0.539,��,7.9,��
2023/04/09,00:20,0.552,0.793,0.481,0.995,0.699,0.316,0.571,0.541,��,8.4,��
2023/04/09,00:30,0.551,0.794,0.483,0.997,0.701,0.317,0.570,0.539,��,8.6,�L
2023/04/09,00:40,0.551,0.796,0.483,1.000,0.699,0.317,0.570,0.539,���k��,8.6,��
2023/04/09,00:50,0.552,0.795,0.481,0.996,0.699,0.317,0.571,0.540,��,6.0,��
2023/04/09,01:00,0.552,0.795,0.483,0.998,0.699,0.318,0.569,0.540,��,7.7,��
2023/04/09,01:10,0.551,0.796,0.482,0.999,0.698,0.318,0.570,0.540,���쐼,6.9,��
2023/04/09,01:20,0.552,0.795,0.482,1.000,0.699,0.318,0.572,0.540,��,6.2,��
2023/04/09,01:30,0.552,0.795,0.482,1.000,0.700,0.318,0.572,0.541,��,6.5,��
2023/04/09,01:40,0.552,0.796,0.480,1.000,0.701,0.318,0.571,0.540,��,5.0,��
2023/04/09,01:50,0.551,0.798,0.484,0.999,0.700,0.317,0.570,0.541,���k��,4.3,��
2023/04/09,02:00,0.551,0.797,0.482,0.998,0.699,0.316,0.569,0.540,���k��,4.9,��
2023/04/09,02:10,0.552,0.796,0.483,0.999,0.699,0.316,0.570,0.540,��,5.8,��
2023/04/09,02:20,0.552,0.796,0.482,0.999,0.700,0.318,0.570,0.540,��,5.3,��
2023/04/09,02:30,0.552,0.795,0.482,1.002,0.698,0.317,0.571,0.541,��,6.4,��
2023/04/09,02:40,0.552,0.796,0.483,1.001,0.699,0.318,0.571,0.542,���쐼,5.3,��
2023/04/09,02:50,0.550,0.796,0.482,0.999,0.698,0.317,0.569,0.540,���k��,6.3,��
2023/04/09,03:00,0.553,0.795,0.484,1.001,0.698,0.316,0.571,0.540,��,6.9,��
2023/04/09,03:10,0.552,0.797,0.483,1.002,0.699,0.317,0.569,0.542,���k��,7.5,��
2023/04/09,03:20,0.552,0.796,0.481,1.000,0.699,0.318,0.569,0.541,��,6.7,��
2023/04/09,03:30,0.552,0.796,0.483,1.001,0.700,0.317,0.572,0.540,��,7.4,��
2023/04/09,03:40,0.553,0.795,0.482,1.002,0.699,0.317,0.570,0.541,��,10.6,��
2023/04/09,03:50,0.551,0.797,0.482,1.002,0.700,0.318,0.571,0.542,��,12.7,��
2023/04/09,04:00,0.553,0.795,0.483,1.002,0.699,0.317,0.570,0.540,��,11.8,��
2023/04/09,04:10,0.552,0.796,0.481,0.999,0.701,0.317,0.573,0.541,��,11.6,��
2023/04/09,04:20,0.550,0.797,0.482,1.003,0.699,0.315,0.573,0.539,��,15.5,��
2023/04/09,04:30,0.552,0.796,0.482,1.001,0.697,0.315,0.572,0.541,��,10.9,��
2023/04/09,04:40,0.552,0.795,0.481,1.002,0.696,0.315,0.571,0.541,��,6.9,��
2023/04/09,04:50,0.552,0.798,0.481,1.001,0.699,0.316,0.571,0.541,��,5.7,��
2023/04/09,05:00,0.552,0.797,0.480,1.000,0.699,0.316,0.572,0.541,��,7.0,��
2023/04/09,05:10,0.552,0.796,0.480,1.001,0.700,0.315,0.570,0.543,��,9.2,��
2023/04/09,05:20,0.553,0.796,0.482,1.001,0.701,0.317,0.570,0.542,���k��,8.9,��
2023/04/09,05:30,0.552,0.797,0.481,1.002,0.701,0.316,0.570,0.541,���k��,10.2,��
2023/04/09,05:40,0.551,0.800,0.482,0.999,0.702,0.318,0.570,0.543,���k��,13.3,��
2023/04/09,05:50,0.552,0.798,0.483,1.000,0.701,0.317,0.572,0.542,���k��,11.1,��
2023/04/09,06:00,0.551,0.798,0.482,1.002,0.702,0.318,0.570,0.542,�k��,13.0,��
2023/04/09,06:10,0.552,0.799,0.483,1.002,0.702,0.317,0.571,0.542,���k��,12.2,��
2023/04/09,06:20,0.551,0.798,0.485,1.002,0.703,0.317,0.571,0.544,���k��,10.5,��
2023/04/09,06:30,0.552,0.797,0.483,1.002,0.701,0.317,0.570,0.542,���k��,10.3,�L
2023/04/09,06:40,0.553,0.798,0.484,1.002,0.702,0.317,0.570,0.545,���k��,12.1,�L
2023/04/09,06:50,0.552,0.797,0.485,1.002,0.702,0.316,0.573,0.543,���k��,13.1,�L
2023/04/09,07:00,0.554,0.797,0.484,1.000,0.700,0.317,0.571,0.543,���k��,10.3,��
2023/04/09,07:10,0.553,0.798,0.483,1.004,0.703,0.318,0.572,0.545,���k��,11.3,�L
2023/04/09,07:20,0.552,0.800,0.482,1.003,0.704,0.318,0.572,0.543,���k��,10.2,��
2023/04/09,07:30,0.555,0.798,0.483,1.002,0.702,0.318,0.572,0.543,�k��,8.1,��
2023/04/09,07:40,0.555,0.799,0.482,1.002,0.703,0.317,0.572,0.544,���k��,6.2,��
2023/04/09,07:50,0.553,0.798,0.484,1.002,0.702,0.317,0.573,0.544,���k��,5.4,��
2023/04/09,08:00,0.555,0.799,0.484,1.003,0.702,0.318,0.572,0.543,�k��,7.4,��
2023/04/09,08:10,0.554,0.799,0.484,1.004,0.703,0.318,0.571,0.544,�k��,9.1,��
2023/04/09,08:20,0.556,0.799,0.485,1.005,0.703,0.316,0.571,0.545,�k��,9.7,��
2023/04/09,08:30,0.554,0.800,0.484,1.003,0.703,0.318,0.572,0.544,�k��,8.2,��
2023/04/09,08:40,0.554,0.799,0.484,1.004,0.703,0.318,0.573,0.544,���k��,6.9,��
2023/04/09,08:50,0.554,0.798,0.485,1.003,0.705,0.318,0.571,0.547,���k��,6.7,��
2023/04/09,09:00,0.555,0.798,0.486,1.005,0.705,0.317,0.571,0.543,�k��,6.0,��
2023/04/09,09:10,0.554,0.799,0.485,1.004,0.702,0.317,0.570,0.546,�k��,10.6,��
2023/04/09,09:20,0.555,0.799,0.486,1.005,0.707,0.318,0.571,0.544,�k��,9.9,��
2023/04/09,09:30,0.554,0.800,0.485,1.005,0.705,0.317,0.570,0.542,�k��,10.2,��
2023/04/09,09:40,0.555,0.800,0.485,1.006,0.707,0.318,0.571,0.541,�k��,7.4,��
2023/04/09,09:50,0.556,0.801,0.487,1.006,0.707,0.319,0.568,0.543,�k��,7.4,��
2023/04/09,10:00,0.555,0.800,0.488,1.006,0.707,0.320,0.570,0.542,�k��,7.6,��
2023/04/09,10:10,0.555,0.801,0.486,1.006,0.705,0.319,0.570,0.543,���k��,7.6,��
2023/04/09,10:20,0.559,0.802,0.487,1.009,0.705,0.318,0.570,0.544,�k��,6.9,��
2023/04/09,10:30,0.558,0.802,0.488,1.006,0.706,0.318,0.570,0.543,���k��,7.2,��
2023/04/09,10:40,0.558,0.804,0.489,1.005,0.705,0.319,0.571,0.542,���k��,7.0,��
2023/04/09,10:50,0.555,0.803,0.487,1.006,0.706,0.318,0.570,0.542,���k��,9.0,��
2023/04/09,11:00,0.557,0.803,0.488,1.007,0.708,0.319,0.571,0.542,���k��,6.1,��
2023/04/09,11:10,0.557,0.803,0.488,1.007,0.708,0.318,0.570,0.543,���k��,5.2,��
2023/04/09,11:20,0.557,0.802,0.487,1.008,0.707,0.318,0.571,0.541,���k��,5.1,��
2023/04/09,11:30,0.558,0.803,0.489,1.006,0.707,0.317,0.570,0.544,���k��,5.2,��
2023/04/09,11:40,0.558,0.804,0.489,1.007,0.706,0.319,0.572,0.542,�k��,6.3,��
2023/04/09,11:50,0.558,0.804,0.490,1.009,0.707,0.317,0.571,0.543,�k��,6.1,��
2023/04/09,12:00,0.559,0.805,0.489,1.009,0.709,0.318,0.571,0.542,���k��,4.4,��
2023/04/09,12:10,0.559,0.805,0.489,1.006,0.707,0.318,0.572,0.542,���k��,3.8,��
2023/04/09,12:20,0.557,0.806,0.489,1.008,0.709,0.318,0.573,0.543,��,4.3,��
2023/04/09,12:30,0.557,0.806,0.490,1.009,0.708,0.319,0.572,0.543,���k��,7.0,��
2023/04/09,12:40,0.557,0.807,0.490,1.007,0.708,0.320,0.572,0.542,���k��,4.3,��
2023/04/09,12:50,0.558,0.807,0.489,1.007,0.710,0.318,0.571,0.543,��,6.8,��
2023/04/09,13:00,0.559,0.807,0.489,1.010,0.709,0.318,0.572,0.542,���k��,8.8,��
2023/04/09,13:10,0.559,0.809,0.489,1.009,0.709,0.319,0.572,0.543,��,9.0,��
2023/04/09,13:20,0.558,0.807,0.490,1.009,0.710,0.321,0.572,0.543,���k��,7.2,��
2023/04/09,13:30,0.557,0.808,0.487,1.008,0.710,0.319,0.572,0.542,���k��,6.0,��
2023/04/09,13:40,0.557,0.807,0.490,1.009,0.711,0.318,0.572,0.543,���k��,5.8,��
2023/04/09,13:50,0.557,0.808,0.489,1.011,0.711,0.319,0.572,0.543,�k��,6.7,��
2023/04/09,14:00,0.559,0.807,0.490,1.009,0.711,0.319,0.573,0.542,���k��,7.6,��
2023/04/09,14:10,0.558,0.807,0.491,1.011,0.708,0.319,0.572,0.543,���k��,9.9,��
2023/04/09,14:20,0.559,0.807,0.491,1.011,0.707,0.319,0.572,0.543,���k��,9.1,��
2023/04/09,14:30,0.559,0.805,0.489,1.011,0.711,0.317,0.574,0.542,���k��,7.3,��
2023/04/09,14:40,0.560,0.810,0.490,1.010,0.712,0.321,0.572,0.542,���k��,7.3,��
2023/04/09,14:50,0.559,0.811,0.491,1.013,0.712,0.320,0.572,0.544,���k��,5.7,��
2023/04/09,15:00,0.560,0.811,0.491,1.012,0.711,0.321,0.573,0.542,���k��,5.4,��
2023/04/09,15:10,0.561,0.809,0.490,1.012,0.712,0.320,0.572,0.542,���k��,7.9,��
2023/04/09,15:20,0.559,0.812,0.492,1.012,0.712,0.321,0.573,0.543,��,8.9,��
2023/04/09,15:30,0.560,0.811,0.491,1.011,0.709,0.321,0.573,0.543,��,6.8,��
2023/04/09,15:40,0.560,0.810,0.491,1.011,0.711,0.321,0.573,0.544,���k��,6.7,��
2023/04/09,15:50,0.560,0.809,0.490,1.010,0.713,0.319,0.572,0.544,���쐼,7.1,��
2023/04/09,16:00,0.559,0.810,0.490,1.011,0.713,0.320,0.573,0.544,��,6.8,��
2023/04/09,16:10,0.558,0.810,0.489,1.010,0.711,0.321,0.572,0.543,��,6.3,��
2023/04/09,16:20,0.560,0.810,0.490,1.010,0.712,0.320,0.573,0.544,��,7.2,��
2023/04/09,16:30,0.559,0.810,0.489,1.010,0.713,0.321,0.571,0.542,���k��,5.5,��
2023/04/09,16:40,0.560,0.810,0.489,1.009,0.713,0.321,0.572,0.542,���k��,4.7,��
2023/04/09,16:50,0.560,0.809,0.490,1.011,0.709,0.320,0.571,0.543,���k��,5.1,��
2023/04/09,17:00,0.560,0.811,0.491,1.008,0.712,0.320,0.572,0.545,�k��,2.9,��
2023/04/09,17:10,0.559,0.814,0.489,1.012,0.711,0.320,0.573,0.544,�k��,6.0,��
2023/04/09,17:20,0.562,0.814,0.492,1.012,0.712,0.321,0.572,0.545,�k��,4.6,��
2023/04/09,17:30,0.562,0.813,0.490,1.012,0.712,0.321,0.571,0.545,�k�k��,4.3,��
2023/04/09,17:40,0.560,0.813,0.491,1.013,0.713,0.321,0.571,0.545,�k��,3.8,��
2023/04/09,17:50,0.560,0.813,0.491,1.012,0.714,0.320,0.570,0.546,���k��,2.9,��
2023/04/09,18:00,0.560,0.812,0.491,1.011,0.713,0.320,0.570,0.545,���쐼,4.2,��
2023/04/09,18:10,0.561,0.812,0.490,1.012,0.716,0.320,0.572,0.545,���쐼,5.2,��
2023/04/09,18:20,0.561,0.813,0.492,1.014,0.715,0.318,0.570,0.544,��,6.7,��
2023/04/09,18:30,0.561,0.810,0.490,1.014,0.715,0.321,0.570,0.546,��,6.5,��
2023/04/09,18:40,0.562,0.811,0.492,1.014,0.715,0.319,0.572,0.545,��,6.1,��
2023/04/09,18:50,0.559,0.811,0.490,1.012,0.715,0.321,0.573,0.545,��,5.2,��
2023/04/09,19:00,0.560,0.812,0.492,1.013,0.714,0.320,0.573,0.545,��,3.6,��
2023/04/09,19:10,0.560,0.812,0.490,1.013,0.712,0.320,0.573,0.544,��,4.2,��
2023/04/09,19:20,0.558,0.812,0.490,1.014,0.714,0.319,0.575,0.545,��,4.7,��
2023/04/09,19:30,0.560,0.808,0.490,1.012,0.714,0.320,0.574,0.546,��,4.6,��
2023/04/09,19:40,0.560,0.813,0.491,1.014,0.713,0.319,0.573,0.544,��,4.4,��
2023/04/09,19:50,0.559,0.811,0.490,1.015,0.713,0.319,0.572,0.545,��,5.5,��
2023/04/09,20:00,0.560,0.811,0.490,1.014,0.713,0.320,0.574,0.542,��,5.7,��
2023/04/09,20:10,0.560,0.810,0.489,1.013,0.715,0.319,0.575,0.543,��,4.6,��
2023/04/09,20:20,0.558,0.811,0.490,1.012,0.714,0.319,0.574,0.545,���쐼,4.8,��
2023/04/09,20:30,0.560,0.811,0.491,1.013,0.713,0.319,0.573,0.544,��,6.3,��
2023/04/09,20:40,0.560,0.810,0.490,1.012,0.714,0.320,0.573,0.544,��,7.3,��
2023/04/09,20:50,0.560,0.812,0.490,1.012,0.715,0.319,0.573,0.545,��,6.3,��
2023/04/09,21:00,0.560,0.811,0.490,1.011,0.715,0.320,0.574,0.544,���쐼,6.0,��
2023/04/09,21:10,0.560,0.812,0.489,1.013,0.714,0.319,0.572,0.542,��,6.6,��
2023/04/09,21:20,0.559,0.811,0.491,1.012,0.713,0.319,0.575,0.543,��,6.9,��
2023/04/09,21:30,0.559,0.808,0.491,1.015,0.712,0.320,0.573,0.544,��,6.8,��
2023/04/09,21:40,0.561,0.810,0.491,1.013,0.715,0.319,0.574,0.544,��,6.6,��
2023/04/09,21:50,0.559,0.810,0.489,1.013,0.713,0.320,0.576,0.544,��,6.4,��
2023/04/09,22:00,0.559,0.810,0.490,1.012,0.715,0.320,0.575,0.543,���k��,6.7,��
2023/04/09,22:10,0.557,0.812,0.491,1.014,0.714,0.319,0.574,0.543,��,5.9,��
2023/04/09,22:20,0.559,0.811,0.490,1.015,0.712,0.318,0.575,0.543,��,4.1,��
2023/04/09,22:30,0.559,0.811,0.491,1.013,0.714,0.320,0.575,0.543,��,4.3,��
2023/04/09,22:40,0.560,0.808,0.491,1.014,0.716,0.319,0.573,0.543,��,4.3,��
2023/04/09,22:50,0.559,0.811,0.492,1.013,0.714,0.319,0.575,0.545,��,4.2,��
2023/04/09,23:00,0.559,0.810,0.490,1.013,0.714,0.319,0.573,0.544,���쐼,3.6,��
2023/04/09,23:10,0.559,0.813,0.490,1.014,0.716,0.320,0.573,0.543,�쐼,3.8,��
2023/04/09,23:20,0.559,0.811,0.490,1.014,0.713,0.319,0.573,0.544,���쐼,4.6,��
2023/04/09,23:30,0.559,0.810,0.490,1.014,0.713,0.318,0.574,0.543,���쐼,4.4,��
2023/04/09,23:40,0.558,0.811,0.491,1.016,0.713,0.320,0.574,0.545,�쐼,4.5,��
2023/04/09,23:50,0.557,0.808,0.489,1.014,0.716,0.321,0.571,0.544,���쐼,5.3,��
